sat.trackr.live / text

‹ back to catalog

STARLINK-34734

NORAD 65696 · 2025-212W

PAYLOAD ACTIVE UNKNOWN

§ Identity

Operator
Country
US
Launch date
2025-09-21
Launch site
AFETR
Launch vehicle
Mass (kg)
RCS (m²)

Purposes: comms

External: N2YO · Heavens-Above · Gunter

§ Orbital elements

Epoch: 2026-09-20T10:18:34.947360Z

Period
94.01 min
Inclination
53.1581°
Eccentricity
0.0000967
Mean motion
15.31690070 rev/d
Perigee alt
470.1 km
Apogee alt
471.4 km
Semi-major
6,848.9 km
B*
2.3502e-4
RAAN
159.3827°
Arg perigee
101.4978°
Mean anomaly
258.6132°
Rev number
5,708

§ Raw data

STARLINK-347341 65696U 25212W   26263.42957115  .00006932  00000+0  23502-3 0  99912 65696  53.1581 159.3827 0000967 101.4978 258.6132 15.31690070 57083

JSON: /api/v1/satellites/65696 · /tle

For live sub-satellite position, see the globe view (requires WebGL).

§ Visibility from observer

Set your observer location to see the next 7 days of passes ≥ 10°. The values pass through the URL so the page stays shareable.

No JS? Fill the form by hand. The geolocation button needs JavaScript.